STARLINK-1181 (45086 NORAD) Tracking and Keplerian Element Data

This shows tracking and keplerian element data for the satellite.

Feedback or suggestion? Click here.




ElementValue
Catalog45086
NameSTARLINK-1181
Epoch Orbit177
Epoch Day47.91667824
Epoch Year2020
RAAN144.369
Inclination52.9972
Eccentricity0.0001639
Argument of Perigee56.755
Mean Anonmoly199.0015
Mean Motion15.73147513
Decay Rate0.00455798
L11 45086U 20006AU 20047.91667824 .00455798 00000-0 30852-2 0 9995
L22 45086 52.9972 144.3690 0001639 56.7550 199.0015 15.73147513 1770

Live tracking and technical data element details for STARLINK-1181 (NORAD 45086). STARLINK-1181 can be tracked NOW for your location showing map with azimuth and elevation plus other details from your city location.

Track the satellite on the map from your city or location and see movement details for azimuth, elevation, latitude, longitude, range, height, and movement on the map or in text.







IsCatalogInMostPopularTable: catalog: 45086, numindb: 1
Update: records affected: 1



GetName: 45086 STARLINK-1181

Hit Count: updated at: Tue, 18 Feb 2020 01:16:02 GMT